Location: Newark
(52.2090°N, 4.1550°W)
Time: 10:52:16
(UTC+00:00)

Transit 4A - Pass Details

Date: 25 October 2019
Orbit: 869 x 976 km, 66.8° (Epoch: 21 November)

Event Time Altitude Azimuth Distance (km) Brightness Sun altitude
Exits shadow 03:08:56 26° 129° (SE) 1,775 9.5 -34.9°
Maximum altitude 03:10:06 28° 110° (ESE) 1,709 9.5 -34.8°
Drops below altitude 10° 03:15:14 10° 54° (NE) 2,663 11.1 -34.1°
Sets 03:18:05 0° 44° (NE) 3,594 11.9 -33.7°
